Location: Bucaritos
(10.0779°N, 67.0369°W)
Time: 18:12:26
(UTC+00:00)

CZ-2C R/B - Visible Passes

Search period start: 30 November 2022 00:00
Search period end: 10 December 2022 00:00
Orbit: 374 x 523 km, 35.0° (Epoch: 29 November)

Date Brightness Start Highest point End Pass type
(mag) Time Alt. Az. Time Alt. Az. Time Alt. Az.
30 Nov 4.1 09:10:57 10° SSE 09:12:28 12° SE 09:14:01 10° ESE visible
02 Dec 0.9 09:28:39 12° SW 09:31:50 79° SE 09:35:31 10° ENE visible
03 Dec 1.5 08:52:43 53° ESE 08:52:43 53° ESE 08:55:48 10° ENE visible
04 Dec 2.6 09:50:05 14° WNW 09:51:25 17° NNW 09:53:53 10° NNE visible
05 Dec 3.1 09:13:34 14° N 09:13:34 14° N 09:14:25 10° NNE visible
